CHINASAT 16 (SJ-13) (42662 NORAD) Tracking and Keplerian Element Data

This shows tracking and keplerian element data for the satellite.

Feedback or suggestion? Click here.




ElementValue
Catalog42662
NameCHINASAT 16 (SJ-13)
Epoch Orbit622
Epoch Day345.87659137
Epoch Year2018
RAAN95.0905
Inclination0.0992
Eccentricity0.0007587
Argument of Perigee146.8954
Mean Anonmoly264.6651
Mean Motion1.00273056
Decay Rate-3.46E-06
L11 42662U 17018A 18345.87659137 -.00000346 00000-0 00000+0 0 9997
L22 42662 0.0992 95.0905 0007587 146.8954 264.6651 1.00273056 6228

Live tracking and technical data element details for CHINASAT 16 (SJ-13) (NORAD 42662). CHINASAT 16 (SJ-13) can be tracked NOW for your location showing map with azimuth and elevation plus other details from your city location.

Track the satellite on the map from your city or location and see movement details for azimuth, elevation, latitude, longitude, range, height, and movement on the map or in text.







IsCatalogInMostPopularTable: catalog: 42662, numindb: 127
Update: records affected: 1



GetName: 42662 CHINASAT 16 (SJ-13)

Hit Count: updated at: Thu, 13 Dec 2018 03:44:39 GMT